Location: Mahannah Oil Field
(37.4664°N, 96.6003°W)
Time: 07:45:35
(UTC+00:00)

Vanguard 3 - Pass Details

Date: 22 January 2021
Orbit: 508 x 3261 km, 33.3° (Epoch: 24 February)

Event Time Altitude Azimuth Distance (km) Brightness Sun altitude
Exits shadow 08:39:22 11° 97° (E) 3,433 10.6 -58.1°
Drops below altitude 10° 08:39:40 10° 95° (E) 3,523 10.7 -58.1°
Sets 08:44:39 0° 82° (E) 5,085 11.7 -57.2°
